EZY492 EGPH-EGCC

Flight info

Callsign EZY492
Flight time N/A
Altitude 23000
Route GOSAM P600 FENIK L612 LAKEY
Aircraft A320/M-SDE3FGHIRWY/LB1

Departure

Time N/A
Airport Edinburgh Airport (EGPH)

Arrival

Time 2026-05-03 20:15
Airport Manchester Airport (EGCC)
Time Latitude Longitude Altitude Speed Heading
2026-05-03 20:15 53.34779 -2.27841 230 ft 26 kts 34°
2026-05-03 20:15 53.34916 -2.27898 234 ft 14 kts 338°
2026-05-03 20:15 53.34987 -2.27834 233 ft 13 kts 51°
2026-05-03 20:15 53.35060 -2.27680 235 ft 19 kts 52°
2026-05-03 20:16 53.35147 -2.27502 237 ft 20 kts 51°
2026-05-03 20:16 53.35236 -2.27317 239 ft 21 kts 51°
2026-05-03 20:16 53.35337 -2.27197 240 ft 17 kts
2026-05-03 20:16 53.35443 -2.27283 242 ft 18 kts 323°
2026-05-03 20:17 53.35543 -2.27416 241 ft 11 kts 321°
2026-05-03 20:17 53.35548 -2.27423 241 ft 0 kts 321°
2026-05-03 20:17 53.35550 -2.27426 241 ft 1 kts 321°
2026-05-03 20:18 53.35554 -2.27431 241 ft 1 kts 321°
2026-05-03 20:18 53.35559 -2.27437 241 ft 1 kts 321°
2026-05-03 20:18 53.35563 -2.27443 241 ft 1 kts 321°
2026-05-03 20:18 53.35571 -2.27454 241 ft 5 kts 320°
2026-05-03 20:19 53.35598 -2.27492 241 ft 5 kts 320°
2026-05-03 20:19 53.35649 -2.27561 241 ft 11 kts 321°
2026-05-03 20:19 53.35715 -2.27632 241 ft 12 kts 335°
2026-05-03 20:19 53.35803 -2.27658 241 ft 14 kts
2026-05-03 20:20 53.35906 -2.27643 242 ft 16 kts
2026-05-03 20:20 53.36018 -2.27623 243 ft 17 kts
2026-05-03 20:20 53.36080 -2.27676 243 ft 8 kts 288°
2026-05-03 20:20 53.36113 -2.27719 243 ft 5 kts 352°
2026-05-03 20:21 53.36147 -2.27705 243 ft 5 kts 21°
2026-05-03 20:21 53.36164 -2.27694 244 ft 0 kts 20°
2026-05-03 20:21 53.36165 -2.27694 244 ft 0 kts 20°